Location: Newark
(52.2128°N, 21.0240°E)
Time: 08:17:10
(UTC+00:00)

N. Korean satellite - Visible Passes

Search period start: 01 October 2020 00:00
Search period end: 11 October 2020 00:00
Orbit: 454 x 503 km, 97.2° (Epoch: 30 September)

Date Brightness Start Highest point End Pass type
(mag) Time Alt. Az. Time Alt. Az. Time Alt. Az.
02 Oct 8.4 03:49:27 10° NNE 03:52:50 36° E 03:56:08 10° SSE visible
03 Oct 9.6 03:23:53 10° NE 03:26:36 20° E 03:29:16 10° SE visible
04 Oct 10.3 02:59:18 10° ENE 03:00:16 11° E 03:01:14 10° ESE visible
05 Oct 7.5 04:04:31 10° NNE 04:08:04 54° E 04:11:31 10° S visible
06 Oct 8.9 03:38:44 10° NE 03:41:53 28° E 03:44:57 10° SSE visible
07 Oct 9.8 03:13:24 10° NE 03:15:35 15° E 03:17:45 10° SE visible
08 Oct 10.5 16:35:42 10° WSW 16:37:13 12° W 16:38:44 10° WNW visible
09 Oct 8.1 03:53:41 10° NNE 03:57:05 40° E 04:00:23 10° S visible
10 Oct 9.4 03:28:02 10° NE 03:30:50 21° E 03:33:35 10° SE visible
